Location: Alafon
(8.4500°N, 4.2333°E)
Time: 01:09:31
(UTC+00:00)

Cosmos 2360 Rocket - Pass Details

Date: 05 July 2020
Orbit: 832 x 847 km, 71.0° (Epoch: 05 August)

Event Time Altitude Azimuth Distance (km) Brightness Sun altitude
Rises 20:21:07 0° 223° (SW) 3,371 5.5 -30.6°
Reaches altitude 10° 20:24:03 10° 238° (WSW) 2,438 4.8 -31.2°
Maximum altitude 20:28:19 22° 288° (WNW) 1,729 4.4 -32.1°
Drops below altitude 10° 20:32:36 10° 338° (NNW) 2,443 5.2 -33.0°
Sets 20:35:34 0° 353° (N) 3,379 5.8 -33.6°
